Home > Weather > Ipswich > Past weeks

Flag for United Kingdom Past Weather in Ipswich, England, United Kingdom — Yesterday and Last 2 Weeks

Now
64 °F

Scattered clouds.


Feels Like: 64 °F
Forecast: 54 / 70 °F
Wind: 13 mph from West

Location: Wattisham

Current Time: Aug 28, 2016 at 9:59:57 AM

Latest Report: Aug 28, 2016 at 8:50 AM


Visibility: N/A

Pressure: 29.86 "Hg

Humidity: 78%

Dew Point: 57 °F

Location of IpswichLocation

Past Weather in Ipswich — Graph

°F

Ipswich Temperature Yesterday

Maximum temperature yesterday: 73 °F (at 11:50 AM)
Minimum temperature yesterday: 59 °F (at 12:50 AM)
Average temperature yesterday: 66 °F

High & Low Weather Summary for the Past Weeks

 TemperatureHumidityPressure
High88 °F (Aug 24, 1:50 PM)100% (Aug 15, 3:50 AM)30.30 "Hg (Aug 15, 3:50 AM)
Low50 °F (Aug 15, 3:50 AM)30% (Aug 26, 4:50 PM)29.68 "Hg (Aug 19, 3:50 PM)
Average65 °F75%30.02 "Hg
* Reported Aug 13 8:50 AM — Aug 28 8:50 AM, Ipswich, Weather by CustomWeather, © 2016

Note: Actual official high and low records may vary slightly from our data, if they occured in-between our weather recording intervals... More about our weather records

Advertising

Ipswich Weather History for the Previous 24 Hours

Scroll right to see more
 ConditionsComfort  
Time TempWeatherWind HumidityBarometerVisibility
8:50 AM
Sun, Aug 28
64 °FScattered clouds.13 mph78%29.86 "HgN/A
7:50 AM64 °FOvercast.15 mph83%29.86 "HgN/A
6:50 AM63 °FPassing clouds.13 mph94%29.83 "Hg3 mi
5:50 AM63 °FFog.9 mph94%29.83 "Hg3 mi
4:50 AM63 °FPartly cloudy.6 mph94%29.83 "Hg4 mi
3:50 AM63 °FPassing clouds.6 mph94%29.83 "HgN/A
2:50 AM63 °FPartly cloudy.6 mph94%29.83 "Hg6 mi
1:50 AM63 °FPassing clouds.3 mph88%29.86 "HgN/A
12:50 AM63 °FPassing clouds.7 mph88%29.86 "HgN/A
11:50 PM
Sat, Aug 27
59 °FCool.5 mph94%29.89 "HgN/A
10:50 PM63 °FPassing clouds.3 mph88%29.89 "HgN/A
9:50 PM64 °FPassing clouds.6 mph83%29.89 "HgN/A
8:50 PM66 °FScattered clouds.7 mph83%29.89 "HgN/A
6:50 PM70 °FPartly sunny.10 mph69%29.92 "HgN/A
5:50 PM72 °FScattered clouds.17 mph61%29.92 "HgN/A
4:50 PM72 °FPassing clouds.17 mph61%29.95 "HgN/A
3:50 PM72 °FPassing clouds.18 mph61%29.95 "HgN/A
2:50 PM73 °FScattered clouds.17 mph57%29.98 "HgN/A
1:50 PM72 °FPartly sunny.15 mph57%30.01 "HgN/A
12:50 PM72 °FPartly sunny.13 mph53%30.04 "HgN/A
11:50 AM73 °FBroken clouds.12 mph53%30.07 "HgN/A
10:50 AM72 °FPassing clouds.15 mph47%30.07 "HgN/A
9:50 AM70 °FPassing clouds.15 mph53%30.09 "HgN/A
Weather by CustomWeather, © 2016

See weather overviewHow to use our weather pages